| time (UTC) | temp F | wind direction | speed MPH | gust MPH | rain 1hr in | rain 24hr in | rain mn in | humidity % | barometer mb |
| 20260505081307 | 72 | 177 | 4.0 | 10.0 | 0.00 | 0.00 | 0.00 | 92 | 1008.8 |
| 20260505080808 | 72 | 158 | 4.0 | 10.0 | 0.00 | 0.00 | 0.00 | 92 | 1008.8 |
| 20260505080308 | 72 | 144 | 5.0 | 10.0 | 0.00 | 0.00 | 0.00 | 92 | 1008.8 |
| 20260505075744 | 72 | 193 | 5.0 | 10.0 | 0.00 | 0.00 | 0.00 | 92 | 1008.8 |
| 20260505075246 | 72 | 164 | 5.0 | 9.0 | 0.00 | 0.00 | 0.00 | 92 | 1008.9 |
| 20260505074958 | 72 | 162 | 5.0 | 11.0 | 0.00 | 0.00 | 0.00 | 92 | 1008.8 |
| 20260505074229 | 72 | 160 | 5.0 | 11.0 | 0.00 | 0.00 | 0.00 | 92 | 1008.9 |
| 20260505073720 | 72 | 188 | 5.0 | 12.0 | 0.00 | 0.00 | 0.00 | 92 | 1008.9 |
| 20260505073450 | 72 | 196 | 5.0 | 12.0 | 0.00 | 0.00 | 0.00 | 91 | 1009.0 |
| 20260505072934 | 72 | 179 | 5.0 | 9.0 | 0.00 | 0.00 | 0.00 | 91 | 1009.0 |
| 20260505072159 | 72 | 171 | 4.0 | 12.0 | 0.00 | 0.00 | 0.00 | 91 | 1009.1 |
| 20260505071658 | 72 | 195 | 4.0 | 12.0 | 0.00 | 0.00 | 0.00 | 91 | 1009.1 |
| 20260505071432 | 72 | 204 | 4.0 | 9.0 | 0.00 | 0.00 | 0.00 | 91 | 1009.1 |
| 20260505070642 | 72 | 149 | 4.0 | 11.0 | 0.00 | 0.00 | 0.00 | 91 | 1009.2 |
| 20260505070144 | 72 | 185 | 5.0 | 11.0 | 0.00 | 0.00 | 0.00 | 91 | 1009.2 |
| 20260505065858 | 72 | 166 | 6.0 | 10.0 | 0.00 | 0.00 | 0.00 | 90 | 1009.2 |
| 20260505065126 | 72 | 191 | 6.0 | 10.0 | 0.00 | 0.00 | 0.00 | 90 | 1009.3 |
| 20260505064856 | 72 | 193 | 5.0 | 11.0 | 0.00 | 0.00 | 0.00 | 90 | 1009.4 |
| 20260505064103 | 72 | 176 | 5.0 | 11.0 | 0.00 | 0.00 | 0.00 | 90 | 1009.5 |
| 20260505063548 | 72 | 165 | 5.0 | 10.0 | 0.00 | 0.00 | 0.00 | 90 | 1009.6 |
| 20260505063041 | 72 | 197 | 5.0 | 10.0 | 0.00 | 0.00 | 0.00 | 90 | 1009.8 |
| 20260505062521 | 72 | 171 | 5.0 | 12.0 | 0.00 | 0.00 | 0.00 | 89 | 1009.7 |
| 20260505062224 | 72 | 191 | 5.0 | 12.0 | 0.00 | 0.00 | 0.00 | 89 | 1009.9 |
| 20260505061430 | 72 | 181 | 5.0 | 12.0 | 0.00 | 0.00 | 0.00 | 89 | 1010.0 |
| 20260505060933 | 72 | 202 | 5.0 | 12.0 | 0.00 | 0.00 | 0.00 | 89 | 1010.0 |
| 20260505060401 | 72 | 228 | 5.0 | 11.0 | 0.00 | 0.00 | 0.00 | 89 | 1009.9 |
| 20260505055859 | 72 | 192 | 5.0 | 11.0 | 0.00 | 0.00 | 0.00 | 89 | 1010.0 |
| 20260505055356 | 72 | 183 | 5.0 | 12.0 | 0.00 | 0.00 | 0.00 | 88 | 1009.9 |
| 20260505055059 | 72 | 165 | 5.0 | 12.0 | 0.00 | 0.00 | 0.00 | 88 | 1009.9 |
| 20260505054311 | 72 | 181 | 5.0 | 10.0 | 0.00 | 0.00 | 0.00 | 88 | 1010.1 |
| 20260505054007 | 72 | 176 | 4.0 | 9.0 | 0.00 | 0.00 | 0.00 | 88 | 1010.1 |
| 20260505053209 | 72 | 122 | 4.0 | 7.0 | 0.00 | 0.00 | 0.00 | 88 | 1010.2 |
| 20260505052706 | 72 | 179 | 4.0 | 8.0 | 0.00 | 0.00 | 0.00 | 88 | 1010.3 |
| 20260505052154 | 72 | 206 | 4.0 | 10.0 | 0.00 | 0.00 | 0.00 | 88 | 1010.3 |
| 20260505051627 | 72 | 147 | 4.0 | 10.0 | 0.00 | 0.00 | 0.00 | 87 | 1010.2 |
| 20260505051126 | 72 | 187 | 5.0 | 11.0 | 0.00 | 0.00 | 0.00 | 88 | 1010.2 |
| 20260505050832 | 72 | 201 | 3.0 | 11.0 | 0.00 | 0.00 | 0.00 | 87 | 1010.2 |
| 20260505041340 | 73 | 161 | 4.0 | 8.0 | 0.00 | 0.00 | 0.00 | 85 | 1010.4 |
| 20260505040821 | 73 | 177 | 4.0 | 8.0 | 0.00 | 0.00 | 0.00 | 85 | 1010.6 |
| 20260505040321 | 73 | 152 | 4.0 | 8.0 | 0.00 | 0.00 | 0.00 | 85 | 1010.7 |
| 20260505035818 | 73 | 179 | 5.0 | 11.0 | 0.00 | 0.00 | 0.00 | 85 | 1010.6 |
| 20260505035314 | 73 | 171 | 5.0 | 11.0 | 0.00 | 0.00 | 0.00 | 84 | 1010.6 |
| 20260505034801 | 74 | 154 | 4.0 | 8.0 | 0.00 | 0.00 | 0.00 | 84 | 1010.8 |
| 20260505034241 | 74 | 158 | 5.0 | 10.0 | 0.00 | 0.00 | 0.00 | 84 | 1010.8 |
| 20260505033951 | 74 | 162 | 5.0 | 12.0 | 0.00 | 0.00 | 0.00 | 84 | 1010.8 |
| 20260505033156 | 74 | 179 | 5.0 | 14.0 | 0.00 | 0.00 | 0.00 | 84 | 1010.8 |
| 20260505032637 | 74 | 192 | 6.0 | 14.0 | 0.00 | 0.00 | 0.00 | 83 | 1010.7 |
| 20260505032112 | 74 | 177 | 6.0 | 13.0 | 0.00 | 0.00 | 0.00 | 83 | 1010.6 |
| 20260505031634 | 74 | 167 | 6.0 | 13.0 | 0.00 | 0.00 | 0.00 | 83 | 1010.6 |
| 20260505030525 | 74 | 169 | 7.0 | 15.0 | 0.00 | 0.00 | 0.00 | 82 | 1010.7 |
| 20260505030000 | 74 | 194 | 6.0 | 15.0 | 0.00 | 0.00 | 0.00 | 82 | 1010.7 |
| 20260505025438 | 74 | 154 | 5.0 | 12.0 | 0.00 | 0.00 | 0.00 | 82 | 1010.7 |
| 20260505025203 | 74 | 152 | 5.0 | 12.0 | 0.00 | 0.00 | 0.00 | 82 | 1010.8 |
| 20260505024406 | 74 | 160 | 6.0 | 14.0 | 0.00 | 0.00 | 0.00 | 82 | 1010.6 |
| 20260505023840 | 74 | 165 | 5.0 | 14.0 | 0.00 | 0.00 | 0.00 | 82 | 1010.7 |
| 20260505023316 | 74 | 174 | 6.0 | 14.0 | 0.00 | 0.00 | 0.00 | 82 | 1010.6 |
| 20260505023018 | 74 | 218 | 6.0 | 14.0 | 0.00 | 0.00 | 0.00 | 82 | 1010.6 |
| 20260505022244 | 74 | 135 | 6.0 | 13.0 | 0.00 | 0.00 | 0.00 | 82 | 1010.6 |
| 20260505021718 | 74 | 160 | 6.0 | 14.0 | 0.00 | 0.00 | 0.00 | 82 | 1010.5 |
| 20260505021152 | 74 | 139 | 6.0 | 14.0 | 0.00 | 0.00 | 0.00 | 82 | 1010.5 |
| 20260505020649 | 74 | 108 | 6.0 | 12.0 | 0.00 | 0.00 | 0.00 | 82 | 1010.5 |
| 20260505020125 | 74 | 176 | 7.0 | 15.0 | 0.00 | 0.00 | 0.00 | 82 | 1010.5 |
| 20260505015618 | 74 | 200 | 7.0 | 15.0 | 0.00 | 0.00 | 0.00 | 82 | 1010.4 |
| 20260505015053 | 75 | 122 | 5.0 | 14.0 | 0.00 | 0.00 | 0.00 | 81 | 1010.4 |
| 20260505014525 | 75 | 148 | 5.0 | 11.0 | 0.00 | 0.00 | 0.00 | 81 | 1010.4 |
| 20260505014023 | 75 | 191 | 6.0 | 12.0 | 0.00 | 0.00 | 0.00 | 81 | 1010.3 |
| 20260505013455 | 75 | 135 | 8.0 | 18.0 | 0.00 | 0.00 | 0.00 | 80 | 1010.3 |
| 20260505012952 | 75 | 124 | 8.0 | 18.0 | 0.00 | 0.00 | 0.00 | 80 | 1010.2 |
| 20260505012427 | 75 | 188 | 6.0 | 13.0 | 0.00 | 0.00 | 0.00 | 80 | 1010.1 |
| 20260505011912 | 75 | 179 | 6.0 | 13.0 | 0.00 | 0.00 | 0.00 | 80 | 1010.1 |
| 20260505011400 | 76 | 109 | 7.0 | 15.0 | 0.00 | 0.00 | 0.00 | 79 | 1010.2 |
| 20260505011355 | 75 | 142 | 8.0 | 15.0 | 0.00 | 0.00 | 0.00 | 79 | 1010.2 |
| 20260505010325 | 76 | 130 | 7.0 | 17.0 | 0.00 | 0.00 | 0.00 | 79 | 1010.1 |
| 20260505005822 | 76 | 164 | 7.0 | 17.0 | 0.00 | 0.00 | 0.00 | 79 | 1010.0 |
| 20260505005319 | 76 | 156 | 6.0 | 17.0 | 0.00 | 0.00 | 0.00 | 78 | 1010.0 |
| 20260505004817 | 76 | 195 | 7.0 | 17.0 | 0.00 | 0.00 | 0.00 | 78 | 1010.0 |
| 20260505004249 | 76 | 179 | 7.0 | 14.0 | 0.00 | 0.00 | 0.00 | 78 | 1009.8 |
| 20260505003746 | 76 | 183 | 8.0 | 18.0 | 0.00 | 0.00 | 0.00 | 78 | 1009.9 |
| 20260505003223 | 77 | 157 | 8.0 | 18.0 | 0.00 | 0.00 | 0.00 | 77 | 1009.9 |
| 20260505002716 | 77 | 97 | 7.0 | 14.0 | 0.00 | 0.00 | 0.00 | 77 | 1010.0 |
| 20260505002149 | 77 | 157 | 6.0 | 14.0 | 0.00 | 0.00 | 0.00 | 76 | 1009.9 |
| 20260505001646 | 78 | 163 | 5.0 | 12.0 | 0.00 | 0.00 | 0.00 | 76 | 1009.9 |
| 20260505001128 | 78 | 171 | 6.0 | 12.0 | 0.00 | 0.00 | 0.00 | 76 | 1010.0 |
| 20260505000622 | 78 | 186 | 6.0 | 12.0 | 0.00 | 0.00 | 0.00 | 76 | 1009.9 |
| 20260505000345 | 78 | 131 | 5.0 | 14.0 | 0.00 | 0.00 | 0.00 | 76 | 1009.9 |
| 20260504235547 | 78 | 197 | 5.0 | 14.0 | 0.00 | 0.00 | 0.00 | 76 | 1010.1 |
| 20260504235045 | 78 | 142 | 6.0 | 16.0 | 0.00 | 0.00 | 0.00 | 76 | 1010.0 |
| 20260504234517 | 78 | 160 | 7.0 | 16.0 | 0.00 | 0.00 | 0.00 | 75 | 1010.2 |
| 20260504234015 | 78 | 165 | 7.0 | 15.0 | 0.00 | 0.00 | 0.00 | 75 | 1010.3 |
| 20260504233511 | 78 | 163 | 7.0 | 15.0 | 0.00 | 0.00 | 0.00 | 75 | 1010.4 |
| 20260504233011 | 78 | 151 | 7.0 | 15.0 | 0.00 | 0.00 | 0.00 | 75 | 1010.2 |
| 20260504232441 | 78 | 166 | 8.0 | 16.0 | 0.00 | 0.00 | 0.00 | 74 | 1010.3 |
| 20260504231942 | 78 | 183 | 7.0 | 14.0 | 0.00 | 0.00 | 0.00 | 74 | 1010.3 |
| 20260504231416 | 79 | 148 | 7.0 | 17.0 | 0.00 | 0.00 | 0.00 | 73 | 1010.3 |
| 20260504230908 | 79 | 168 | 6.0 | 17.0 | 0.00 | 0.00 | 0.00 | 73 | 1010.4 |
| 20260504230615 | 79 | 153 | 7.0 | 18.0 | 0.00 | 0.00 | 0.00 | 74 | 1010.5 |
| 20260504225842 | 79 | 148 | 8.0 | 18.0 | 0.00 | 0.00 | 0.00 | 74 | 1010.5 |
| 20260504225317 | 79 | 182 | 7.0 | 17.0 | 0.00 | 0.00 | 0.00 | 74 | 1010.5 |
| 20260504225024 | 79 | 122 | 8.0 | 17.0 | 0.00 | 0.00 | 0.00 | 74 | 1010.7 |
| 20260504224226 | 79 | 120 | 8.0 | 16.0 | 0.00 | 0.00 | 0.00 | 73 | 1010.6 |
| 20260504223715 | 79 | 125 | 9.0 | 16.0 | 0.00 | 0.00 | 0.00 | 73 | 1010.7 |
| 20260504223210 | 79 | 177 | 9.0 | 19.0 | 0.00 | 0.00 | 0.00 | 72 | 1010.6 |
| 20260504222707 | 79 | 172 | 8.0 | 19.0 | 0.00 | 0.00 | 0.00 | 72 | 1010.7 |
| 20260504222210 | 80 | 132 | 7.0 | 15.0 | 0.00 | 0.00 | 0.00 | 71 | 1010.9 |
| 20260504221708 | 80 | 159 | 6.0 | 14.0 | 0.00 | 0.00 | 0.00 | 71 | 1010.9 |
| 20260504221152 | 80 | 190 | 6.0 | 14.0 | 0.00 | 0.00 | 0.00 | 70 | 1010.9 |
| 20260504220651 | 80 | 191 | 7.0 | 17.0 | 0.00 | 0.00 | 0.00 | 71 | 1011.0 |
| 20260504220136 | 80 | 131 | 7.0 | 17.0 | 0.00 | 0.00 | 0.00 | 70 | 1011.0 |
| 20260504215625 | 80 | 145 | 7.0 | 16.0 | 0.00 | 0.00 | 0.00 | 69 | 1011.1 |
| 20260504215124 | 80 | 109 | 8.0 | 16.0 | 0.00 | 0.00 | 0.00 | 69 | 1011.1 |
| 20260504214624 | 80 | 124 | 8.0 | 14.0 | 0.00 | 0.00 | 0.00 | 68 | 1011.0 |
| 20260504214125 | 81 | 195 | 7.0 | 15.0 | 0.00 | 0.00 | 0.00 | 68 | 1011.1 |
| 20260504213607 | 81 | 170 | 7.0 | 14.0 | 0.00 | 0.00 | 0.00 | 67 | 1011.3 |
| 20260504213103 | 81 | 231 | 6.0 | 14.0 | 0.00 | 0.00 | 0.00 | 67 | 1011.2 |
| 20260504212620 | 81 | 216 | 7.0 | 12.0 | 0.00 | 0.00 | 0.00 | 66 | 1011.2 |
| 20260504212042 | 82 | 158 | 7.0 | 13.0 | 0.00 | 0.00 | 0.00 | 66 | 1011.3 |
| 20260504211514 | 82 | 145 | 6.0 | 13.0 | 0.00 | 0.00 | 0.00 | 66 | 1011.4 |
| 20260504210948 | 82 | 217 | 5.0 | 13.0 | 0.00 | 0.00 | 0.00 | 65 | 1011.4 |
| 20260504210700 | 82 | 125 | 5.0 | 12.0 | 0.00 | 0.00 | 0.00 | 64 | 1011.4 |
| 20260504205923 | 82 | 156 | 5.0 | 12.0 | 0.00 | 0.00 | 0.00 | 63 | 1011.6 |
| 20260504205358 | 82 | 55 | 5.0 | 10.0 | 0.00 | 0.00 | 0.00 | 65 | 1011.6 |
| 20260504204831 | 82 | 145 | 5.0 | 14.0 | 0.00 | 0.00 | 0.00 | 64 | 1011.7 |
| 20260504204306 | 82 | 204 | 6.0 | 14.0 | 0.00 | 0.00 | 0.00 | 64 | 1011.8 |
| 20260504203738 | 82 | 108 | 5.0 | 13.0 | 0.00 | 0.00 | 0.00 | 64 | 1011.7 |
| 20260504203235 | 83 | 193 | 4.0 | 13.0 | 0.00 | 0.00 | 0.00 | 63 | 1011.8 |
| 20260504202738 | 82 | 191 | 5.0 | 11.0 | 0.00 | 0.00 | 0.00 | 64 | 1011.9 |
| 20260504202229 | 82 | 185 | 6.0 | 15.0 | 0.00 | 0.00 | 0.00 | 63 | 1011.9 |
| 20260504201705 | 82 | 195 | 5.0 | 15.0 | 0.00 | 0.00 | 0.00 | 64 | 1012.1 |
| 20260504201201 | 82 | 187 | 6.0 | 12.0 | 0.00 | 0.00 | 0.00 | 64 | 1012.2 |
| 20260504200657 | 82 | 235 | 6.0 | 12.0 | 0.00 | 0.00 | 0.00 | 63 | 1012.4 |
| 20260504200132 | 83 | 219 | 4.0 | 9.0 | 0.00 | 0.00 | 0.00 | 62 | 1012.3 |
| 20260504195604 | 83 | 201 | 3.0 | 8.0 | 0.00 | 0.00 | 0.00 | 62 | 1012.4 |
| 20260504195101 | 83 | 179 | 4.0 | 13.0 | 0.00 | 0.00 | 0.00 | 64 | 1012.5 |
| 20260504194535 | 83 | 205 | 6.0 | 13.0 | 0.00 | 0.00 | 0.00 | 62 | 1012.6 |
| 20260504194008 | 83 | 116 | 6.0 | 12.0 | 0.00 | 0.00 | 0.00 | 62 | 1012.7 |
| 20260504193506 | 83 | 246 | 6.0 | 14.0 | 0.00 | 0.00 | 0.00 | 62 | 1012.7 |
| 20260504192939 | 83 | 212 | 7.0 | 14.0 | 0.00 | 0.00 | 0.00 | 63 | 1012.8 |
| 20260504192436 | 82 | 139 | 7.0 | 16.0 | 0.00 | 0.00 | 0.00 | 62 | 1012.9 |
| 20260504191908 | 82 | 203 | 7.0 | 16.0 | 0.00 | 0.00 | 0.00 | 62 | 1012.9 |
| 20260504191405 | 82 | 210 | 6.0 | 14.0 | 0.00 | 0.00 | 0.00 | 62 | 1013.0 |
| 20260504190838 | 82 | 195 | 5.0 | 13.0 | 0.00 | 0.00 | 0.00 | 62 | 1013.1 |
| 20260504190334 | 82 | 158 | 5.0 | 13.0 | 0.00 | 0.00 | 0.00 | 62 | 1013.2 |
| 20260504185832 | 82 | 185 | 5.0 | 10.0 | 0.00 | 0.00 | 0.00 | 61 | 1013.2 |
| 20260504185305 | 82 | 204 | 5.0 | 10.0 | 0.00 | 0.00 | 0.00 | 62 | 1013.2 |
| 20260504184802 | 81 | 133 | 6.0 | 12.0 | 0.00 | 0.00 | 0.00 | 63 | 1013.3 |
| 20260504184235 | 82 | 212 | 6.0 | 12.0 | 0.00 | 0.00 | 0.00 | 62 | 1013.4 |
| 20260504183710 | 83 | 197 | 6.0 | 18.0 | 0.00 | 0.00 | 0.00 | 62 | 1013.3 |
| 20260504183148 | 81 | 196 | 5.0 | 13.0 | 0.00 | 0.00 | 0.00 | 63 | 1013.1 |
| 20260504183142 | 82 | 177 | 6.0 | 18.0 | 0.00 | 0.00 | 0.00 | 63 | 1013.2 |
| 20260504182139 | 80 | 185 | 8.0 | 17.0 | 0.00 | 0.00 | 0.00 | 64 | 1013.5 |
| 20260504182134 | 80 | 131 | 7.0 | 17.0 | 0.00 | 0.00 | 0.00 | 64 | 1013.3 |
| 20260504181104 | 81 | 197 | 7.0 | 15.0 | 0.00 | 0.00 | 0.00 | 63 | 1013.6 |
| 20260504180831 | 80 | 118 | 7.0 | 14.0 | 0.00 | 0.00 | 0.00 | 63 | 1013.7 |
| 20260504180330 | 80 | 247 | 8.0 | 14.0 | 0.00 | 0.00 | 0.00 | 64 | 1013.9 |
| 20260504175531 | 80 | 220 | 8.0 | 14.0 | 0.00 | 0.00 | 0.00 | 63 | 1013.9 |
| 20260504175026 | 80 | 192 | 7.0 | 15.0 | 0.00 | 0.00 | 0.00 | 63 | 1013.8 |
| 20260504174523 | 80 | 177 | 7.0 | 15.0 | 0.00 | 0.00 | 0.00 | 63 | 1014.1 |
| 20260504173958 | 79 | 215 | 7.0 | 16.0 | 0.00 | 0.00 | 0.00 | 63 | 1014.1 |
| 20260504173430 | 80 | 189 | 7.0 | 16.0 | 0.00 | 0.00 | 0.00 | 64 | 1013.9 |
| 20260504173158 | 80 | 108 | 6.0 | 14.0 | 0.00 | 0.00 | 0.00 | 64 | 1014.1 |
| 20260504172630 | 80 | 204 | 6.0 | 12.0 | 0.00 | 0.00 | 0.00 | 64 | 1014.3 |
| 20260504171858 | 80 | 214 | 7.0 | 16.0 | 0.00 | 0.00 | 0.00 | 64 | 1014.5 |
| 20260504171356 | 80 | 187 | 6.0 | 16.0 | 0.00 | 0.00 | 0.00 | 64 | 1014.4 |
| 20260504170828 | 80 | 212 | 6.0 | 14.0 | 0.00 | 0.00 | 0.00 | 65 | 1014.5 |
| 20260504170327 | 79 | 121 | 6.0 | 14.0 | 0.00 | 0.00 | 0.00 | 66 | 1014.6 |
| 20260504160306 | 76 | 218 | 6.0 | 13.0 | 0.00 | 0.00 | 0.00 | 70 | 1015.4 |
| 20260504150829 | 74 | 138 | 7.0 | 12.0 | 0.00 | 0.00 | 0.00 | 73 | 1015.5 |
| 20260504150559 | 74 | 200 | 7.0 | 14.0 | 0.00 | 0.00 | 0.00 | 72 | 1015.3 |
| 20260504141016 | 73 | 131 | 2.0 | 5.0 | 0.00 | 0.00 | 0.00 | 72 | 1015.5 |
| 20260504140450 | 72 | 190 | 2.0 | 6.0 | 0.00 | 0.00 | 0.00 | 71 | 1015.4 |
| 20260504130634 | 68 | 152 | 2.0 | 5.0 | 0.00 | 0.00 | 0.00 | 77 | 1015.6 |
| 20260504130110 | 67 | 160 | 2.0 | 5.0 | 0.00 | 0.00 | 0.00 | 78 | 1015.5 |
| 20260504110537 | 62 | 172 | 0.0 | 2.0 | 0.00 | 0.00 | 0.00 | 83 | 1015.0 |
| 20260504100158 | 63 | 173 | 0.0 | 2.0 | 0.00 | 0.00 | 0.00 | 80 | 1015.3 |
| 20260504081850 | 64 | 177 | 1.0 | 3.0 | 0.00 | 0.00 | 0.00 | 78 | 1015.9 |